Terminal Aerodrome Forecast
Issued by NWS Dallas/Fort Worth, TX

Home | Current Version | Previous Version | Text Only | Print | Product List | Glossary On
Versions: 1 2 3 4 5 6 7 8 9 10 11 12 13 14 15 16 17 18 19 20 21 22 23 24 25 26 27 28 29 30 31 32
320
FTUS44 KFWD 061131
TAFACT
TAF
KACT 061131Z 0612/0712 17007KT 1SM BR SCT003
      TEMPO 0612/0615 1/2SM FG OVC002
     FM061500 35009KT 5SM BR OVC015
     FM062000 36012KT P6SM OVC022
     FM070100 01007KT P6SM SCT025 BKN035
     FM070800 36006KT P6SM BKN025=

USA.gov is the U.S. government's official web portal to all federal, state and local government web resources and services.